星链-31499 (STARLINK-31499 )

导读 | 星芒AI

STARLINK-31499 是 SpaceX Starlink 卫星互联网项目中的一颗低轨卫星,属于第二代 Starlink 卫星星座的一部分。该卫星由 SpaceX 研制并发射,旨在为全球用户提供高速、低延迟的宽带互联网服务。它运行在约 550 公里的轨道高度,配备先进通信设备和激光链路,支持星间通信。STARLINK-31499 的部署有助于增强 Starlink 网络的覆盖范围和性能,特别是在偏远和网络基础设施薄弱的地区。

基本信息
目录编号:
59217
目录名称:
STARLINK-31499
国际标识:
2024-046S
轨道中心:
EARTH
卫星名称:
星链-31499
卫星全名:
星链-31499 (STARLINK-31499 )
卫星状态:
在轨 (已飞行649 天)
发射日期:
2024-03-11 UTC
国别 :
美国 (US)
星等 :
--
轨道信息
数据来源 国际轨道数据 AOE轨道数据
星历时间 2025-12-19T19:44:25+0800
12小时前
查看轨道信息
2025-12-16T13:00:00+0800
3天前
查看轨道信息
半长轴 6853.393km 6853.279km
偏心率 0.0001336 0.0001252
轨道倾角 53.159° 53.156°
近地点辐角 84.998° 69.259°
升交点赤经 167.636° 182.874°
平近点角 275.117° 207.667°
近地点 474.34km 474.285km
远地点 476.172km 476.003km
周期 94.106分钟 94.104分钟
每日圈数 15.301864 15.302246
详细信息
固有亮度:
5
最大亮度:
0.3
卫星平台:
Starlink v2.0 mini
覆盖范围:
全球
运营商:
太空探索技术公司
运营商所在国:
美国
制造商(研发单位):
太空探索技术公司
制造商所在国:
美国
使用方式:
暂无
卫星简介
星链(Starlink)计划是由太空探索技术公司(SpaceX)提出的一个巨型低轨卫星互联网星座项目,计划在2019年至2024年间在太空搭建由约1.2万颗卫星组成的“星链”网络,其中1584颗将部署在地球上空550千米处的近地轨道,并从2020年开始工作。该卫星仍在工作。
2D轨道图
3D轨道图
轨道高度分析图
轨道倾角分析图
轨道综合分析图
查看轨道综合分析图